This is the latest recevied weather packets stored in our database for station/object ac2ev. If no packets are shown the sender has not sent any weather packets the latest 10 day(s).
| Time | Temp. | Humidity | Pressure | Rain* | Wind** | Luminosity | Snow |
|---|---|---|---|---|---|---|---|
| 1788558451 | 24.44° C | 62% | 1011.9 hPa | 0 mm | - | - | - |
| 1788558197 | 24.44° C | 62% | 1011.9 hPa | 0 mm | - | - | - |
| 1788557850 | 24.44° C | 62% | 1011.9 hPa | 0 mm | - | - | - |
| 1788557551 | 24.44° C | 63% | 1011.9 hPa | 0 mm | - | - | - |
| 1788557250 | 24.44° C | 62% | 1011.9 hPa | 0 mm | - | - | - |
| 1788556951 | 24.44° C | 61% | 1012.1 hPa | 0 mm | - | - | - |
| 1788556651 | 24.44° C | 61% | 1012.1 hPa | 0 mm | - | - | - |
| 1788556351 | 24.44° C | 59% | 1012.3 hPa | 0 mm | - | - | - |
| 1788556051 | 24.44° C | 61% | 1012.3 hPa | 0 mm | - | - | - |
| 1788555751 | 24.44° C | 59% | 1012.4 hPa | 0 mm | - | - | - |
| 1788555449 | 24.44° C | 60% | 1012.3 hPa | 0 mm | - | - | - |
| 1788555197 | 24.44° C | 60% | 1012.4 hPa | 0 mm | - | - | - |
| 1788554843 | 24.44° C | 60% | 1012.4 hPa | 0 mm | - | - | - |
| 1788554533 | 24.44° C | 57% | 1012.3 hPa | 0 mm | - | - | - |
| 1788554233 | 24.44° C | 58% | 1012.4 hPa | 0 mm | - | - | - |
| 1788553999 | 24.44° C | 59% | 1012.4 hPa | 0 mm | - | - | - |
| 1788553633 | 24.44° C | 59% | 1012.4 hPa | 0 mm | - | - | - |
| 1788553333 | 25° C | 60% | 1012.4 hPa | 0 mm | - | - | - |
| 1788553062 | 24.44° C | 61% | 1012.4 hPa | 0 mm | - | - | - |
| 1788552733 | 25° C | 59% | 1012.5 hPa | 0 mm | - | - | - |
| 1788552433 | 25° C | 59% | 1012.5 hPa | 0 mm | - | - | - |
| 1788552133 | 25.56° C | 58% | 1012.5 hPa | 0 mm | - | - | - |
| 1788551833 | 25.56° C | 58% | 1012.6 hPa | 0 mm | - | - | - |
| 1788551600 | 25.56° C | 58% | 1012.7 hPa | 0 mm | - | - | - |
| 1788551229 | 25.56° C | 59% | 1012.8 hPa | 0 mm | - | - | - |
* Rain latest hour (hover to see other rain measurements)
** Current wind speed in m/s (hover to see current wind gust speed)